EW3506 Weather Reports


Display with metric or nautical units.
time (UTC)temp
F
wind
direction
speed
MPH
gust
MPH
rain 1hr
in
rain 24hr
in
rain mn
in
humidity
%
barometer
mb
20260504044536 54 360 0.0 3.0 0.00 0.10 0.10 71 1003.4
20260504043037 55 360 0.0 2.0 0.00 0.10 0.10 70 1003.4
20260504041532 55 360 0.0 2.0 0.00 0.10 0.10 69 1003.3
20260504040031 56 360 0.0 2.0 0.00 0.10 0.10 69 1003.3
20260504034530 56 360 0.0 2.0 0.00 0.10 0.10 66 1003.2
20260504033030 57 360 0.0 2.0 0.00 0.10 0.10 65 1003.4
20260504031531 58 360 0.0 2.0 0.00 0.10 0.10 64 1003.5
20260504030029 58 360 1.0 3.0 0.00 0.10 0.10 64 1003.6
20260504024535 58 360 0.0 2.0 0.00 0.10 0.10 63 1003.7
20260504023028 59 360 1.0 2.0 0.00 0.10 0.10 63 1003.6
20260504021528 59 360 1.0 3.0 0.00 0.10 0.10 61 1003.6
20260504020027 60 360 1.0 4.0 0.00 0.10 0.10 61 1003.5
20260504014526 61 360 1.0 5.0 0.00 0.10 0.10 60 1003.2
20260504013034 61 360 1.0 5.0 0.00 0.10 0.10 59 1003.2
20260504011525 62 360 0.0 5.0 0.00 0.10 0.10 58 1003.0
20260504010024 63 360 0.0 4.0 0.00 0.10 0.10 55 1003.0
20260504004525 64 360 1.0 3.0 0.00 0.10 0.10 52 1003.0
20260504003036 66 360 1.0 5.0 0.00 0.10 0.10 50 1003.0
20260504001522 67 123 1.0 7.0 0.00 0.10 0.10 48 1003.0
20260504000021 68 171 2.0 7.0 0.00 0.10 0.10 47 1003.1
20260503234520 68 117 2.0 9.0 0.00 0.10 0.10 46 1003.0
20260503233021 68 164 3.0 11.0 0.00 0.10 0.10 45 1003.2
20260503231518 69 163 4.0 11.0 0.00 0.10 0.10 44 1003.2
20260503230016 69 105 3.0 13.0 0.00 0.10 0.10 43 1003.3
20260503224526 69 178 6.0 14.0 0.00 0.10 0.10 44 1003.4
20260503223014 69 194 4.0 12.0 0.00 0.10 0.10 45 1003.5
20260503221512 69 172 6.0 16.0 0.00 0.10 0.10 43 1003.5
20260503220018 68 135 5.0 14.0 0.00 0.10 0.10 46 1003.7
20260503214510 68 133 3.0 10.0 0.00 0.10 0.10 46 1003.7
20260503213006 68 142 6.0 10.0 0.00 0.10 0.10 45 1003.9
20260503211504 67 178 5.0 12.0 0.00 0.10 0.10 44 1004.2
20260503210059 67 113 5.0 14.0 0.00 0.10 0.10 45 1004.5
20260503204557 66 360 6.0 21.0 0.00 0.10 0.10 47 1004.8
20260503203056 64 119 5.0 12.0 0.00 0.10 0.10 49 1005.1
20260503201551 64 108 6.0 17.0 0.00 0.10 0.10 45 1005.5
20260503200049 64 175 9.0 17.0 0.00 0.10 0.10 44 1005.7
20260503194550 64 115 7.0 14.0 0.00 0.10 0.10 48 1005.9
20260503193045 64 96 8.0 15.0 0.00 0.10 0.10 50 1006.0
20260503191540 62 360 6.0 14.0 0.00 0.10 0.10 55 1006.3
20260503190040 61 360 5.0 13.0 0.00 0.10 0.10 59 1006.4
20260503184544 60 79 4.0 11.0 0.00 0.10 0.10 65 1006.7
20260503183028 58 96 3.0 11.0 0.00 0.10 0.10 66 1006.9
20260503181523 56 98 4.0 10.0 0.00 0.10 0.10 69 1007.3
20260503180020 54 103 3.0 11.0 0.00 0.10 0.10 72 1007.6
20260503174519 54 59 2.0 8.0 0.01 0.10 0.10 76 1008.0
20260503173014 52 92 2.0 9.0 0.01 0.10 0.10 77 1008.3
20260503171511 49 360 1.0 4.0 0.03 0.10 0.10 87 1009.2
20260503081546 41 360 0.0 0.0 0.00 0.00 0.00 71 1012.7